Simultaneous Nadir Overpasses (SNOs) Predictions

Prediction of SNOs between GOES-16 and NOAA-20 Satellite Orbit:

Table of predicted SNOs for the next 14.0 days since TLE Epoch: 3/7/2020
Index Date Time (GOES-16) GOES-16 Lat,Lon NOAA-20 Lat,Lon Distance(km) Time Diff (sec)
1 03/07/2020 06:11:22 0.04, -75.19 -0.68, -71.95 368.68 80
2 03/08/2020 18:33:19 -0.04, -75.18 -0.48, -77.26 236.46 80
3 03/09/2020 18:17:14 -0.04, -75.18 0.52, -72.73 279.72 80
4 03/11/2020 06:39:03 0.03, -75.18 0.68, -77.99 320.75 80
5 03/12/2020 06:17:39 0.03, -75.18 -0.38, -73.47 195.71 80
6 03/13/2020 18:39:35 -0.04, -75.18 -0.84, -78.77 408.50 80
7 03/14/2020 18:23:31 -0.04, -75.19 0.16, -74.23 108.36 80
8 03/16/2020 06:45:20 0.04, -75.20 0.98, -79.51 491.03 80
9 03/17/2020 06:23:56 0.04, -75.20 -0.02, -74.98 26.04 80
10 03/19/2020 18:27:09 -0.05, -75.22 -0.13, -75.75 59.96 80
11 03/20/2020 18:11:04 -0.05, -75.23 0.87, -71.22 457.92 80




NCC Satellite Simultaneous Nadir Overpasses (SNOs) Prediction Service
